This demonstration page uses our WeatherBlox Daily Observations layout. Learn more.

Left ArrowRight Arrow

34.74481, -87.66753

Hourly Observations for February 12, 2020

Temp ( °F °C ) Dew Point ( °F °C ) Humidity (%) Winds ( mph kmh ) Pressure ( in mb ) Visibility ( mi km ) Precip ( " mm )
12:25 am 00:25 Cloudy 46 7.8 41 5 83 83 ENE 6 9 30.15 1021 7 11 0.00 0.00
12:53 am 00:53 Cloudy 45 7.2 41 5 86 86 ENE 7 11 30.12 1020 7 11 0.00 0.00
1:35 am 01:35 Cloudy with Light Rain 45 7.2 41 5 86 86 ENE 8 13 30.14 1021 7 11 0.01 0.25
1:53 am 01:53 Cloudy with Light Rain 45 7.2 40 4.4 83 83 ENE 8 13 30.12 1020 7 11 0.01 0.25
2:42 am 02:42 Cloudy 44 6.7 40 4.4 85 85 ENE 7 11 30.11 1020 7 11 0.01 0.25
2:53 am 02:53 Cloudy 44 6.7 40 4.4 85 85 ENE 8 13 30.08 1019 7 11 0.01 0.25
3:53 am 03:53 Cloudy 44 6.7 40 4.4 85 85 ENE 8 13 30.06 1018 7 11 0.00 0.00
4:19 am 04:19 Cloudy 44 6.7 40 4.4 85 85 E 10 17 30.05 1018 7 11 0.00 0.00
4:33 am 04:33 Cloudy 44 6.7 40 4.4 85 85 E 8 13 30.04 1017 8 13 0.00 0.00
4:53 am 04:53 Cloudy 44 6.7 40 4.4 85 85 E 10 17 30.02 1017 7 11 0.00 0.00
5:18 am 05:18 Cloudy with Light Rain 45 7.2 41 5 86 86 NE 6 9 30.05 1018 7 11 0.01 0.25
5:46 am 05:46 Cloudy with Light Rain 45 7.2 41 5 86 86 NE 3 6 30.06 1018 6 10 0.01 0.25
5:53 am 05:53 Cloudy 45 7.2 41 5 86 86 NNE 3 6 30.04 1017 7 11 0.01 0.25
6:04 am 06:04 Cloudy with Light Rain 45 7.2 41 5 86 86 ESE 3 6 30.05 1018 6 10 0.00 0.00
6:53 am 06:53 Cloudy with Light Rain 45 7.2 42 5.6 90 90 ENE 7 11 30.02 1017 3 5 0.02 0.51
7:04 am 07:04 Cloudy with Light Rain 45 7.2 42 5.6 90 90 ENE 8 13 30.02 1017 3 4 0.00 0.00
7:15 am 07:15 Cloudy with Light Rain 45 7.2 42 5.6 90 90 ENE 6 9 30.02 1017 2 2 0.01 0.25
7:26 am 07:26 Cloudy with Light Rain 45 7.2 43 6.1 93 93 E 6 9 30.02 1017 3 4 0.01 0.25
7:29 am 07:29 Cloudy with Light Rain 45 7.2 42 5.6 90 90 ENE 7 11 30.01 1016 3 5 0.01 0.25
7:36 am 07:36 Cloudy with Light Rain 45 7.2 42 5.6 90 90 E 7 11 30.02 1017 2 3 0.01 0.25
7:53 am 07:53 Cloudy with Mist and Fog 45 7.2 43 6.1 93 93 ESE 7 11 30.01 1016 3 5 0.02 0.51
8:18 am 08:18 Cloudy with Light Rain 46 7.8 43 6.1 89 89 E 8 13 30.00 1016 3 4 0.01 0.25
8:26 am 08:26 Cloudy with Light Rain 46 7.8 43 6.1 89 89 E 8 13 30.00 1016 3 5 0.02 0.51
8:44 am 08:44 Cloudy with Rain 46 7.8 44 6.7 93 93 ESE 7 11 30.00 1016 2 3 0.02 0.51
8:53 am 08:53 Cloudy with Light Rain 46 7.8 44 6.7 93 93 E 7 11 29.99 1016 2 3 0.03 0.76
8:58 am 08:58 Cloudy with Light Rain 46 7.8 44 6.7 93 93 E 7 11 30.00 1016 3 5 0.00 0.00
9:22 am 09:22 Cloudy with Light Rain 47 8.3 44 6.7 90 90 E 8 13 30.00 1016 3 4 0.01 0.25
9:53 am 09:53 Cloudy with Mist and Fog 47 8.3 45 7.2 93 93 E 8 13 29.97 1015 2 3 0.03 0.76
10:07 am 10:07 Cloudy with Rain 48 8.9 45 7.2 89 89 ESE 5 7 29.99 1016 2 3 0.01 0.25
10:14 am 10:14 Cloudy with Light Rain 48 8.9 46 7.8 93 93 ESE 3 6 29.99 1016 3 5 0.01 0.25
10:53 am 10:53 Cloudy with Mist and Fog 49 9.4 46 7.8 90 90 E 6 9 29.96 1015 4 6 0.03 0.76
11:13 am 11:13 Cloudy with Mist and Fog 50 10 47 8.3 89 89 E 3 6 29.96 1014 3 4 0.01 0.25
11:29 am 11:29 Cloudy with Light Rain 50 10 48 8.9 93 93 ENE 3 6 29.94 1014 2 3 0.02 0.51
11:51 am 11:51 Cloudy with Mist and Fog 52 11 48 9 88 88 ESE 9 15 29.91 1013 2 3 0.03 0.76
11:53 am 11:53 Cloudy with Mist and Fog 51 10.6 48 8.9 89 89 ESE 9 15 29.90 1013 2 3 0.03 0.76
12:53 pm 12:53 Cloudy with Mist and Fog 54 12.2 52 11.1 93 93 ESE 8 13 29.83 1010 2 2 0.02 0.51
1:11 pm 13:11 Cloudy with Mist and Fog 56 13.3 54 12.2 93 93 SE 9 15 29.80 1009 2 3 0.00 0.00
1:46 pm 13:46 Cloudy with Mist and Fog 60 15.6 58 14.4 93 93 S 7 11 29.78 1008 5 8 0.00 0.00
1:53 pm 13:53 Cloudy 61 16.1 59 15 93 93 S 7 11 29.77 1008 7 11 0.00 0.00
2:03 pm 14:03 Cloudy 62 16.7 59 15 90 90 S 8 13 29.76 1008 8 13 0.00 0.00
2:53 pm 14:53 Cloudy 66 18.9 62 16.7 87 87 S 20 31 29.72 1006 10 16 0.00 0.00
3:28 pm 15:28 Cloudy 68 20 62 16.7 81 81 S 16 26 29.69 1005 10 16 0.00 0.00
3:53 pm 15:53 Cloudy 69 20.6 63 17.2 81 81 S 16 26 29.68 1005 10 16 0.00 0.00
4:53 pm 16:53 Cloudy 70 21.1 63 17.2 79 79 S 17 28 29.66 1005 10 16 0.00 0.00
5:06 pm 17:06 Cloudy 70 21.1 64 17.8 82 82 S 16 26 29.69 1005 10 16 0.00 0.00
5:13 pm 17:13 Cloudy with Haze 68 20 61 16.1 78 78 W 39 63 29.75 1007 5 8 0.00 0.00
5:15 pm 17:15 Cloudy with Rain 65 18.3 59 15 81 81 WNW 31 50 29.73 1007 2 3 0.00 0.00
5:22 pm 17:22 Cloudy with Heavy Rain 63 17.2 60 15.6 90 90 WSW 22 35 29.76 1008 1 2 0.00 0.00
5:35 pm 17:35 Cloudy with Heavy Rain 63 17.2 60 15.6 90 90 WSW 17 28 29.76 1008 3 5 0.00 0.00
5:53 pm 17:53 Cloudy with Light Rain 62 16.7 59 15 90 90 WSW 9 15 29.75 1008 10 16 0.00 0.00
6:53 pm 18:53 Cloudy with Light Rain 62 16.7 59 15 90 90 W 9 15 29.75 1007 9 14 0.00 0.00
7:53 pm 19:53 Cloudy with Heavy Rain 62 16.7 59 15 90 90 SW 12 19 29.76 1008 4 6 0.02 0.51
8:53 pm 20:53 Cloudy with Rain 62 16.7 59 15 90 90 SSW 8 13 29.73 1007 6 10 0.00 0.00
9:53 pm 21:53 Cloudy with Rain 62 16.7 59 15 90 90 S 10 17 29.72 1007 6 10 0.00 0.00
10:21 pm 22:21 Cloudy with Rain 62 16.7 59 15 90 90 SSW 8 13 29.72 1007 5 8 0.00 0.00
10:31 pm 22:31 Cloudy with Rain 61 16.1 59 15 93 93 SSW 9 15 29.75 1007 5 8 0.00 0.00
10:53 pm 22:53 Cloudy with Rain 61 16.1 59 15 93 93 SW 9 15 29.75 1007 5 8 0.00 0.00
11:10 pm 23:10 Cloudy with Light Rain 61 16.1 59 15 93 93 SSW 10 17 29.76 1008 6 10 0.00 0.00
11:17 pm 23:17 Cloudy with Light Rain 61 16.1 59 15 93 93 SSW 8 13 29.74 1007 8 13 0.00 0.00
11:35 pm 23:35 Cloudy with Rain 61 16.1 59 15 93 93 SSW 10 17 29.78 1008 6 10 0.00 0.00
11:53 pm 23:53 Cloudy with Rain 61 16.1 59 15 93 93 WSW 8 13 29.76 1008 4 6 0.00 0.00

Powered by AerisWeather